Terug naar catalogus

SL-14 DEB

ActiefPO
NORAD 47092·DEBRIS·🇷🇺 Russia

Gelanceerd Aug 15, 1991 vanaf Plesetsk Cosmodrome

Loading…

Volgende Passages (komende 24 uur)

TLE

VersSource: Space-Track

Epoch: Sep 13, 2026, 18:05 UTC

1 47092U 91056DS  26256.75369928  .00001020  00000-0  17537-2 0  9991
2 47092  82.5688  14.5844 0084481 324.3275  35.2234 13.42171115286212

Volg SL-14 DEB in realtime met AllMySat

Download on the App Store